Westminster, MD

10:09 AM EST on November 20, 2019 (GMT -0500)
Carroll County Regional-Poage

Weather History for KDMW - September, 2019

Change the Weather History Date:

Thursday, September 26, 2019

  Actual Average (WUND) Record (WUND)
Temperature  
Mean Temperature 71 °F -  
Max Temperature 82 °F - - (-1)
Min Temperature 60 °F - - (-1)
Cooling Degree Days 6    
Growing Degree Days 21 (Base 50)    
Moisture  
Dew Point 59 °F    
Average Humidity 69    
Maximum Humidity 88    
Minimum Humidity 42    
Precipitation  
Precipitation 0.02 in - - ()
Sea Level Pressure  
Sea Level Pressure 29.86 in    
Wind  
Wind Speed 3 mph (WSW)    
Max Wind Speed 15 mph    
Max Gust Speed 21 mph    
Visibility 10 miles    
Events Rain    
Averages and records for this station are not official NWS values.
T = Trace of Precipitation, MM = Missing Value Source: NWS Daily Summary

Daily Weather History Graph

Daily Weather History Graph

Search for Another Location

Airport or City:

Astronomy

Sep. 26, 2019 Rise Set
Actual Time 6:59 AM EDT 6:58 PM EDT
Civil Twilight 6:32 AM EDT 7:25 PM EDT
Nautical Twilight 6:00 AM EDT 7:57 PM EDT
Astronomical Twilight 5:29 AM EDT 8:28 PM EDT
Moon 4:04 AM EDT (9/26) 6:09 PM EDT (9/26)
Length of Visible Light 12h 53m
Length of Day
11h 59m
Waning Crescent, 7% of the Moon is Illuminated
Sep 26
Waning Crescent
Sep 28
New
Oct 5
First Quarter
Oct 13
Full
Oct 21
Last Quarter

Hourly Weather History & Observations

Time (EDT) Temp. Heat Index Dew Point Humidity Pressure Visibility Wind Dir Wind Speed Gust Speed Precip Events Conditions
12:00 AM 64.4 °F - 55.4 °F 73% 29.89 in 10.0 mi Calm Calm - N/A   Clear
12:20 AM 66.2 °F - 55.4 °F 68% 29.88 in 10.0 mi Calm Calm - N/A   Clear
12:40 AM 64.4 °F - 55.4 °F 73% 29.88 in 10.0 mi Calm Calm - N/A   Clear
1:00 AM 64.4 °F - 55.4 °F 73% 29.88 in 10.0 mi South 3.5 mph - N/A   Clear
1:20 AM 66.2 °F - 55.4 °F 68% 29.88 in 10.0 mi South 4.6 mph - N/A   Clear
1:40 AM 66.2 °F - 55.4 °F 68% 29.88 in 10.0 mi South 3.5 mph - N/A   Clear
2:00 AM 64.4 °F - 55.4 °F 73% 29.87 in 10.0 mi South 3.5 mph - N/A   Clear
2:20 AM 64.4 °F - 55.4 °F 73% 29.86 in 10.0 mi South 3.5 mph - N/A   Clear
2:40 AM 64.4 °F - 55.4 °F 73% 29.85 in 10.0 mi SE 3.5 mph - N/A   Clear
3:00 AM 62.6 °F - 55.4 °F 77% 29.85 in 10.0 mi SE 4.6 mph - N/A   Clear
3:20 AM 62.6 °F - 55.4 °F 77% 29.84 in 10.0 mi SE 3.5 mph - N/A   Clear
3:40 AM 62.6 °F - 57.2 °F 82% 29.84 in 10.0 mi Calm Calm - N/A   Clear
4:00 AM 62.6 °F - 57.2 °F 82% 29.84 in 10.0 mi Calm Calm - N/A   Clear
4:20 AM 62.6 °F - 57.2 °F 82% 29.84 in 10.0 mi Calm Calm - N/A   Clear
4:40 AM 62.6 °F - 57.2 °F 82% 29.84 in 10.0 mi SE 3.5 mph - N/A   Clear
5:00 AM 62.6 °F - 57.2 °F 82% 29.83 in 10.0 mi Calm Calm - N/A   Clear
5:20 AM 60.8 °F - 55.4 °F 82% 29.83 in 7.0 mi Calm Calm - N/A   Clear
5:40 AM 60.8 °F - 57.2 °F 88% 29.83 in 10.0 mi Calm Calm - N/A   Clear
6:00 AM 60.8 °F - 57.2 °F 88% 29.82 in 10.0 mi Calm Calm - N/A   Clear
6:20 AM 62.6 °F - 57.2 °F 82% 29.82 in 10.0 mi Calm Calm - N/A   Clear
6:40 AM 62.6 °F - 57.2 °F 82% 29.82 in 10.0 mi SSE 4.6 mph - N/A   Clear
7:00 AM 62.6 °F - 57.2 °F 82% 29.82 in 10.0 mi SSW 3.5 mph - N/A   Clear
7:20 AM 62.6 °F - 57.2 °F 82% 29.83 in 10.0 mi Calm Calm - N/A   Clear
7:40 AM 64.4 °F - 57.2 °F 77% 29.83 in 10.0 mi Calm Calm - N/A   Clear
8:00 AM 64.4 °F - 59.0 °F 83% 29.83 in 10.0 mi Calm Calm - N/A   Clear
8:20 AM 66.2 °F - 60.8 °F 83% 29.84 in 10.0 mi SW 3.5 mph - N/A   Clear
8:40 AM 66.2 °F - 60.8 °F 83% 29.84 in 10.0 mi SSW 3.5 mph - N/A   Scattered Clouds
9:00 AM 66.2 °F - 60.8 °F 83% 29.83 in 10.0 mi SW 3.5 mph - N/A   Clear
9:20 AM 69.8 °F - 60.8 °F 73% 29.83 in 10.0 mi SSW 4.6 mph - N/A   Clear
9:40 AM 71.6 °F - 60.8 °F 69% 29.83 in 10.0 mi SW 3.5 mph - N/A   Clear
10:00 AM 73.4 °F - 60.8 °F 65% 29.83 in 10.0 mi SW 5.8 mph - N/A   Clear
10:20 AM 75.2 °F - 60.8 °F 61% 29.83 in 10.0 mi WSW 6.9 mph - N/A   Scattered Clouds
10:40 AM 75.2 °F - 60.8 °F 61% 29.82 in 10.0 mi SW 6.9 mph - N/A   Scattered Clouds
11:00 AM 78.8 °F - 60.8 °F 54% 29.82 in 10.0 mi WSW 6.9 mph - N/A   Clear
11:20 AM 80.6 °F 81.1 °F 59.0 °F 48% 29.82 in 10.0 mi WSW 8.1 mph - N/A   Clear
11:40 AM 80.6 °F 81.1 °F 59.0 °F 48% 29.81 in 10.0 mi SW 8.1 mph - N/A   Clear
12:00 PM 77.0 °F - 64.4 °F 65% 29.84 in 5.0 mi West 15.0 mph 20.7 mph N/A Rain Heavy Rain
12:20 PM 73.4 °F - 62.6 °F 69% 29.83 in 10.0 mi West 5.8 mph - 0.02 in Rain Light Rain
12:40 PM 75.2 °F - 64.4 °F 69% 29.82 in 10.0 mi WSW 3.5 mph - 0.02 in   Clear
1:00 PM 77.0 °F - 64.4 °F 65% 29.82 in 10.0 mi WSW 4.6 mph - N/A Rain Light Rain
1:20 PM 78.8 °F - 62.6 °F 57% 29.81 in 10.0 mi WSW 6.9 mph - N/A   Scattered Clouds
1:40 PM 78.8 °F - 62.6 °F 57% 29.81 in 10.0 mi West 9.2 mph - N/A   Mostly Cloudy
2:00 PM 75.2 °F - 66.2 °F 73% 29.82 in 7.0 mi WNW 8.1 mph - N/A Rain Light Rain
2:20 PM 73.4 °F - 66.2 °F 78% 29.82 in 10.0 mi WNW 5.8 mph - N/A Rain Light Rain
2:40 PM 73.4 °F - 64.4 °F 73% 29.82 in 10.0 mi WNW 4.6 mph - N/A   Overcast
3:00 PM 75.2 °F - 64.4 °F 69% 29.81 in 10.0 mi Calm Calm - N/A   Mostly Cloudy
3:20 PM 75.2 °F - 62.6 °F 65% 29.82 in 10.0 mi Calm Calm - N/A   Overcast
3:40 PM 75.2 °F - 62.6 °F 65% 29.82 in 10.0 mi West 5.8 mph - N/A   Overcast
4:00 PM 78.8 °F - 62.6 °F 57% 29.82 in 10.0 mi NW 3.5 mph - N/A   Scattered Clouds
4:20 PM 80.6 °F 81.8 °F 62.6 °F 54% 29.81 in 10.0 mi WNW 9.2 mph - N/A   Scattered Clouds
4:40 PM 80.6 °F 81.8 °F 62.6 °F 54% 29.82 in 10.0 mi NW 6.9 mph - N/A   Clear
5:00 PM 80.6 °F 81.5 °F 60.8 °F 51% 29.82 in 10.0 mi WNW 5.8 mph - N/A   Clear
5:20 PM 80.6 °F 81.5 °F 60.8 °F 51% 29.83 in 10.0 mi WNW 6.9 mph - N/A   Scattered Clouds
5:40 PM 82.4 °F 82.0 °F 57.2 °F 42% 29.84 in 10.0 mi NW 6.9 mph - N/A   Scattered Clouds
6:00 PM 80.6 °F 81.1 °F 59.0 °F 48% 29.84 in 10.0 mi NW 4.6 mph - N/A   Scattered Clouds
6:20 PM 80.6 °F 81.5 °F 60.8 °F 51% 29.85 in 10.0 mi North 4.6 mph - N/A   Clear
6:40 PM 78.8 °F - 62.6 °F 57% 29.86 in 10.0 mi Calm Calm - N/A   Clear
7:00 PM 75.2 °F - 60.8 °F 61% 29.88 in 10.0 mi NW 3.5 mph - N/A   Clear
7:20 PM 75.2 °F - 59.0 °F 57% 29.88 in 10.0 mi Calm Calm - N/A   Clear
7:40 PM 71.6 °F - 59.0 °F 64% 29.89 in 10.0 mi North 3.5 mph - N/A   Clear
8:00 PM 71.6 °F - 59.0 °F 64% 29.91 in 10.0 mi Calm Calm - N/A   Clear
8:20 PM 71.6 °F - 57.2 °F 60% 29.91 in 10.0 mi Calm Calm - N/A   Clear
8:40 PM 69.8 °F - 57.2 °F 64% 29.92 in 10.0 mi Calm Calm - N/A   Clear
9:00 PM 71.6 °F - 57.2 °F 60% 29.94 in 10.0 mi Calm Calm - N/A   Clear
9:20 PM 71.6 °F - 57.2 °F 60% 29.94 in 10.0 mi NNW 3.5 mph - N/A   Clear
9:40 PM 69.8 °F - 57.2 °F 64% 29.95 in 10.0 mi Calm Calm - N/A   Clear
10:00 PM 68.0 °F - 57.2 °F 68% 29.96 in 10.0 mi North 4.6 mph - N/A   Clear
10:20 PM 69.8 °F - 57.2 °F 64% 29.97 in 10.0 mi North 4.6 mph - N/A   Clear
10:40 PM 66.2 °F - 57.2 °F 73% 29.97 in 10.0 mi East 3.5 mph - N/A   Clear
11:00 PM 64.4 °F - 57.2 °F 77% 29.97 in 10.0 mi Calm Calm - N/A   Clear
11:20 PM 64.4 °F - 57.2 °F 77% 29.98 in 10.0 mi Calm Calm - N/A   Clear
11:40 PM 64.4 °F - 55.4 °F 73% 29.99 in 10.0 mi Calm Calm - N/A   Clear